• In Belarus
  • List of Countries
  • For 7 days
  • Water Temperature
  • Satellite Maps
  • Weather Map
  • Weather Widgets
  • user-avatar
    Login

    Hourly Weather Potosi

    Today, 24 November, Friday

    Time Temperature Precipitation Wind Pressure Humidity
    00:00 +9°C° 0 mm 2 mps 468 mmHg 64%
    01:00 +9°C° 0 mm 2 mps 468 mmHg 64%
    02:00 +10°C° 0 mm 1 mps 468 mmHg 64%
    03:00 +10°C° 0 mm 1 mps 468 mmHg 65%
    04:00 +9°C° 0 mm 1 mps 467 mmHg 67%
    05:00 +9°C° 0 mm 1 mps 467 mmHg 68%
    06:00 +9°C° 0 mm 1 mps 468 mmHg 64%
    07:00 +10°C° 0 mm 1 mps 469 mmHg 59%
    08:00 +11°C° 0 mm 1 mps 469 mmHg 55%
    09:00 +12°C° 0 mm 1 mps 470 mmHg 47%
    10:00 +14°C° 0 mm 2 mps 471 mmHg 39%
    11:00 +14°C° 0 mm 3 mps 472 mmHg 31%
    12:00 +16°C° 0 mm 3 mps 472 mmHg 29%
    13:00 +17°C° 0 mm 4 mps 472 mmHg 27%
    14:00 +17°C° 0 mm 5 mps 472 mmHg 26%
    15:00 +16°C° 0.4 mm 6 mps 471 mmHg 31%
    16:00 +15°C° 0.4 mm 7 mps 470 mmHg 37%
    17:00 +13°C° 0.4 mm 8 mps 469 mmHg 42%
    18:00 +12°C° 0.6 mm 7 mps 469 mmHg 49%
    19:00 +11°C° 0.6 mm 6 mps 469 mmHg 56%
    20:00 +9°C° 0.6 mm 5 mps 468 mmHg 62%
    21:00 +10°C° 0 mm 4 mps 469 mmHg 64%
    22:00 +10°C° 0 mm 3 mps 469 mmHg 67%
    23:00 +9°C° 0 mm 2 mps 469 mmHg 69%

    Tomorrow, 25 November, Saturday

    Time Temperature Precipitation Wind Pressure Humidity
    00:00 +9°C° 0 mm 2 mps 469 mmHg 69%
    01:00 +9°C° 0 mm 2 mps 468 mmHg 69%
    02:00 +9°C° 0 mm 2 mps 468 mmHg 70%
    03:00 +9°C° 0 mm 2 mps 468 mmHg 70%
    04:00 +8°C° 0 mm 2 mps 468 mmHg 71%
    05:00 +9°C° 0 mm 1 mps 468 mmHg 72%
    06:00 +10°C° 0 mm 1 mps 468 mmHg 68%
    07:00 +10°C° 0 mm 1 mps 469 mmHg 63%
    08:00 +11°C° 0 mm 1 mps 470 mmHg 59%
    09:00 +12°C° 0 mm 2 mps 470 mmHg 52%
    10:00 +14°C° 0 mm 2 mps 471 mmHg 44%
    11:00 +16°C° 0 mm 2 mps 472 mmHg 36%
    12:00 +16°C° 0.2 mm 3 mps 472 mmHg 35%
    13:00 +17°C° 0.2 mm 4 mps 472 mmHg 33%
    14:00 +18°C° 0.2 mm 4 mps 471 mmHg 31%
    15:00 +15°C° 2.3 mm 5 mps 470 mmHg 40%
    16:00 +14°C° 2.3 mm 5 mps 469 mmHg 49%
    17:00 +12°C° 2.3 mm 5 mps 467 mmHg 57%
    18:00 +10°C° 1.6 mm 5 mps 467 mmHg 61%
    19:00 +10°C° 1.6 mm 5 mps 467 mmHg 66%
    20:00 +9°C° 1.6 mm 5 mps 468 mmHg 70%
    21:00 +8°C° 0.2 mm 4 mps 468 mmHg 70%
    22:00 +9°C° 0.2 mm 3 mps 468 mmHg 71%
    23:00 +9°C° 0.2 mm 2 mps 469 mmHg 72%

    Day after tomorrow, 26 November, Sunday

    Time Temperature Precipitation Wind Pressure Humidity
    00:00 +9°C° 0 mm 2 mps 468 mmHg 72%
    01:00 +8°C° 0 mm 2 mps 468 mmHg 72%
    02:00 +8°C° 0 mm 2 mps 467 mmHg 71%
    03:00 +8°C° 0 mm 2 mps 467 mmHg 72%
    04:00 +8°C° 0 mm 2 mps 467 mmHg 72%
    05:00 +8°C° 0 mm 2 mps 467 mmHg 72%
    06:00 +8°C° 0 mm 2 mps 468 mmHg 69%
    07:00 +9°C° 0 mm 2 mps 468 mmHg 66%
    08:00 +9°C° 0 mm 2 mps 469 mmHg 64%
    09:00 +11°C° 0 mm 3 mps 470 mmHg 57%
    10:00 +12°C° 0 mm 3 mps 470 mmHg 51%
    11:00 +13°C° 0 mm 3 mps 471 mmHg 44%
    12:00 +14°C° 0.2 mm 4 mps 470 mmHg 42%
    13:00 +15°C° 0.2 mm 4 mps 470 mmHg 40%
    14:00 +15°C° 0.2 mm 4 mps 470 mmHg 38%
    15:00 +15°C° 0.2 mm 4 mps 469 mmHg 41%
    16:00 +14°C° 0.2 mm 5 mps 468 mmHg 43%
    17:00 +14°C° 0.2 mm 5 mps 468 mmHg 46%
    18:00 +13°C° 0 mm 5 mps 468 mmHg 51%
    19:00 +12°C° 0 mm 4 mps 467 mmHg 57%
    20:00 +11°C° 0 mm 4 mps 467 mmHg 62%
    21:00 +10°C° 0 mm 3 mps 468 mmHg 65%
    22:00 +10°C° 0 mm 3 mps 468 mmHg 68%
    23:00 +10°C° 0 mm 2 mps 468 mmHg 71%

    27 November, Monday

    Time Temperature Precipitation Wind Pressure Humidity
    00:00 +9°C° 0 mm 2 mps 468 mmHg 71%
    01:00 +9°C° 0 mm 2 mps 467 mmHg 71%
    02:00 +9°C° 0 mm 2 mps 467 mmHg 70%
    03:00 +10°C° 0 mm 1 mps 467 mmHg 70%
    04:00 +9°C° 0 mm 1 mps 467 mmHg 69%
    05:00 +9°C° 0 mm 1 mps 467 mmHg 68%
    06:00 +10°C° 0 mm 1 mps 468 mmHg 63%
    07:00 +10°C° 0 mm 1 mps 468 mmHg 58%
    08:00 +11°C° 0 mm 1 mps 469 mmHg 53%
    09:00 +12°C° 0.2 mm 2 mps 470 mmHg 50%
    10:00 +13°C° 0.2 mm 2 mps 470 mmHg 47%
    11:00 +13°C° 0.2 mm 3 mps 471 mmHg 43%
    12:00 +13°C° 0.2 mm 3 mps 470 mmHg 42%
    13:00 +14°C° 0.2 mm 4 mps 470 mmHg 40%
    14:00 +15°C° 0.2 mm 4 mps 470 mmHg 39%
    15:00 +14°C° 0.4 mm 5 mps 470 mmHg 43%
    16:00 +14°C° 0.4 mm 6 mps 469 mmHg 47%
    17:00 +12°C° 0.4 mm 7 mps 469 mmHg 51%
    18:00 +11°C° 1.7 mm 6 mps 469 mmHg 59%
    19:00 +9°C° 1.7 mm 5 mps 468 mmHg 66%
    20:00 +7°C° 1.7 mm 4 mps 468 mmHg 74%
    21:00 +7°C° 1.5 mm 4 mps 468 mmHg 75%
    22:00 +8°C° 1.5 mm 3 mps 468 mmHg 76%
    23:00 +7°C° 1.5 mm 2 mps 469 mmHg 77%

    28 November, Tuesday

    Time Temperature Precipitation Wind Pressure Humidity
    00:00 +7°C° 0.5 mm 2 mps 468 mmHg 78%
    01:00 +7°C° 0.5 mm 2 mps 468 mmHg 78%
    02:00 +7°C° 0.5 mm 2 mps 468 mmHg 78%
    03:00 +7°C° 0.3 mm 2 mps 468 mmHg 78%
    04:00 +7°C° 0.3 mm 2 mps 468 mmHg 79%
    05:00 +7°C° 0.3 mm 2 mps 468 mmHg 79%
    06:00 +7°C° 0.5 mm 2 mps 469 mmHg 79%
    07:00 +7°C° 0.5 mm 3 mps 469 mmHg 78%
    08:00 +7°C° 0.5 mm 3 mps 470 mmHg 78%
    09:00 +7°C° 1.2 mm 3 mps 470 mmHg 79%
    10:00 +5°C° 1.2 mm 3 mps 470 mmHg 80%
    11:00 +5°C° 1.2 mm 3 mps 469 mmHg 81%
    12:00 +7°C° 0.6 mm 3 mps 469 mmHg 78%
    13:00 +7°C° 0.6 mm 3 mps 469 mmHg 76%
    14:00 +7°C° 0.6 mm 3 mps 468 mmHg 73%
    15:00 +8°C° 0.1 mm 3 mps 468 mmHg 69%
    16:00 +8°C° 0.1 mm 3 mps 469 mmHg 64%
    17:00 +9°C° 0.1 mm 3 mps 469 mmHg 60%
    18:00 +8°C° 0 mm 3 mps 469 mmHg 63%
    19:00 +8°C° 0 mm 3 mps 469 mmHg 66%
    20:00 +7°C° 0 mm 3 mps 469 mmHg 69%
    21:00 +7°C° 0 mm 3 mps 469 mmHg 71%
    22:00 +6°C° 0 mm 2 mps 469 mmHg 74%
    23:00 +6°C° 0 mm 2 mps 468 mmHg 76%

    29 November, Wednesday

    Time Temperature Precipitation Wind Pressure Humidity
    00:00 +7°C° 0 mm 1 mps 468 mmHg 77%
    01:00 +6°C° 0 mm 1 mps 468 mmHg 78%
    02:00 +6°C° 0 mm 1 mps 467 mmHg 79%
    03:00 +6°C° 0 mm 1 mps 467 mmHg 78%
    04:00 +5°C° 0 mm 0 mps 467 mmHg 78%
    05:00 +5°C° 0 mm 0 mps 467 mmHg 77%
    06:00 +6°C° 0 mm 0 mps 468 mmHg 72%
    07:00 +7°C° 0 mm 0 mps 468 mmHg 67%
    08:00 +7°C° 0 mm 0 mps 469 mmHg 62%
    09:00 +10°C° 0 mm 1 mps 470 mmHg 56%
    10:00 +10°C° 0 mm 2 mps 470 mmHg 49%
    11:00 +13°C° 0 mm 2 mps 471 mmHg 42%
    12:00 +13°C° 0 mm 3 mps 470 mmHg 41%
    13:00 +13°C° 0 mm 4 mps 470 mmHg 40%
    14:00 +14°C° 0 mm 5 mps 470 mmHg 39%
    15:00 +14°C° 0.1 mm 5 mps 469 mmHg 44%
    16:00 +13°C° 0.1 mm 6 mps 469 mmHg 48%
    17:00 +13°C° 0.1 mm 6 mps 468 mmHg 52%
    18:00 +10°C° 0.2 mm 6 mps 468 mmHg 57%
    19:00 +9°C° 0.2 mm 5 mps 467 mmHg 63%
    20:00 +8°C° 0.2 mm 4 mps 467 mmHg 68%
    21:00 +8°C° 0.2 mm 4 mps 467 mmHg 70%
    22:00 +8°C° 0.2 mm 3 mps 467 mmHg 72%
    23:00 +8°C° 0.2 mm 3 mps 467 mmHg 74%
    Show more